DateTimeUTC,F1_A11,F1_S11,BsB_S11,BsG_S11,BsR_S11,BbsB_S11,BbsG_S11,BbsR_S11,BaB_A11,BaG_A11,BaR_A11,Tu_S11,T_S11,Uu_S11,U_S11,P_S11,T1_A11
2021-10-09T01:00:00Z,00000200,21000000,,,,,,,0000.32,0000.24,0000.23,16.3,23.5,,00.0,0670.9,30.8
2021-10-09T01:01:00Z,00000200,21000000,,,,,,,-000.52,-000.18,-000.27,16.3,23.5,,00.0,0670.9,30.8
2021-10-09T01:02:00Z,00000200,21000000,,,,,,,-000.26,-000.46,-000.40,16.3,23.5,,00.0,0670.9,30.8
2021-10-09T01:03:00Z,00000200,61000000,,,,,,,0002.59,0002.66,0002.03,16.4,23.6,,00.0,0670.9,30.9
2021-10-09T01:04:00Z,00000200,41000000,0001.29,0000.66,0000.59,0000.29,0000.54,0000.27,0001.04,0000.68,0000.53,16.8,23.5,,00.0,0671.8,30.9
2021-10-09T01:05:00Z,00000200,01000000,0001.57,0000.74,0000.55,0000.16,0000.07,-000.15,0000.64,0000.21,0000.62,16.9,23.5,,00.0,0671.8,30.9
2021-10-09T01:06:00Z,00000200,01000000,0001.44,0000.76,0000.20,0000.63,0000.29,0000.04,-000.17,0000.24,-000.27,16.9,23.5,,00.0,0671.8,30.9
2021-10-09T01:07:00Z,00000200,01000000,0000.40,0000.51,0000.50,0000.60,0000.34,0000.11,0000.32,0000.37,-000.10,16.9,23.5,,00.0,0671.8,30.9
2021-10-09T01:08:00Z,00000200,01000000,0001.45,0000.49,0000.52,0000.49,0000.19,0000.04,0000.11,-000.16,0000.31,16.8,23.4,,00.0,0671.8,30.9
2021-10-09T01:09:00Z,00000200,01000000,0001.92,0000.56,0000.83,0000.23,0000.27,-000.11,0000.47,0000.41,0000.28,16.7,23.4,,00.0,0671.8,30.8
2021-10-09T01:10:00Z,00000200,01000000,0000.98,0000.73,0000.45,-000.27,0000.32,-000.09,0000.53,0000.57,0000.07,16.6,23.3,,00.0,0671.8,30.8
2021-10-09T01:11:00Z,00000200,01000000,0001.83,0000.92,0000.16,0000.29,0000.23,-000.01,0000.28,0000.03,0000.39,16.5,23.3,,00.0,0671.8,30.8
2021-10-09T01:12:00Z,00000200,01000000,0001.04,0001.03,0000.42,-000.70,0000.52,-000.06,0000.61,0000.45,0000.50,16.4,23.2,,00.0,0671.8,30.8
2021-10-09T01:13:00Z,00000200,01000000,0001.52,0000.68,0000.52,0000.58,0000.15,-000.08,0001.71,0001.79,0000.80,16.4,23.2,,00.0,0671.8,30.8
2021-10-09T01:14:00Z,00000200,01000000,0001.39,0000.95,0000.76,0000.70,0000.08,0000.12,0006.45,0005.56,0004.55,16.4,23.2,,00.0,0671.8,30.8
2021-10-09T01:15:00Z,00000200,01000000,0001.93,0000.95,0000.55,0000.41,0000.48,0000.21,0015.43,0013.91,0010.34,16.5,23.2,,00.0,0671.7,30.8
2021-10-09T01:16:00Z,00000200,01000000,0001.64,0000.54,0000.34,0000.21,0000.19,-000.06,0005.60,0005.02,0004.02,16.6,23.2,,00.0,0671.7,30.8
2021-10-09T01:17:00Z,00000200,01000000,0001.26,0000.93,0000.48,0000.59,0000.17,-000.05,0011.03,0010.00,0007.34,16.7,23.3,,00.0,0671.7,30.8
2021-10-09T01:18:00Z,00000200,01000000,0001.47,0000.74,0000.63,0000.13,0000.11,0000.25,0010.81,0009.49,0007.24,16.7,23.3,,00.0,0671.7,30.9
2021-10-09T01:19:00Z,00000200,01000000,0001.95,0000.54,0000.69,0000.57,0000.24,0000.25,0012.01,0010.68,0007.97,16.8,23.3,,00.0,0671.7,30.9
2021-10-09T01:20:00Z,00000200,01000000,0001.72,0000.94,0000.59,0000.35,-000.05,-000.01,0021.26,0019.29,0014.26,16.9,23.4,,00.0,0671.7,30.9
2021-10-09T01:21:00Z,00000200,01000000,0001.60,0000.67,0000.35,0000.52,0000.40,-000.01,0020.30,0017.96,0013.86,17.0,23.4,,00.0,0671.7,30.9
2021-10-09T01:22:00Z,00000200,01000000,0001.60,0000.53,0000.46,0000.58,0000.25,0000.32,0002.48,0002.76,0001.81,17.0,23.4,,00.0,0671.7,30.9
2021-10-09T01:23:00Z,00000200,01000000,0000.82,0000.89,0000.59,-000.58,0000.21,0000.11,0008.83,0007.30,0005.43,17.0,23.4,,00.0,0671.7,30.9
2021-10-09T01:24:00Z,00000200,01000000,0001.43,0000.84,0000.59,-000.12,0000.05,0000.16,0006.61,0006.10,0004.77,16.9,23.4,,00.0,0671.8,30.9
2021-10-09T01:25:00Z,00000200,01000000,0001.54,0000.57,0000.56,0000.17,0000.21,-000.25,0003.45,0002.56,0001.97,16.8,23.4,,00.0,0671.7,30.8
2021-10-09T01:26:00Z,00000200,01000000,0001.50,0001.10,0000.33,0000.37,0000.08,-000.10,0004.13,0004.16,0002.64,16.7,23.3,,00.0,0671.7,30.8
2021-10-09T01:27:00Z,00000200,01000000,0001.48,0000.75,0000.52,0000.54,0000.37,0000.07,0001.98,0001.62,0001.61,16.6,23.3,,00.0,0671.7,30.8
2021-10-09T01:28:00Z,00000200,01000000,0001.49,0000.30,0000.47,0000.28,0000.15,0000.01,0003.54,0003.18,0002.47,16.6,23.2,,00.0,0671.7,30.8
2021-10-09T01:29:00Z,00000200,01000000,0001.47,0000.82,0000.74,0000.24,0000.46,0000.05,0003.17,0002.81,0002.15,16.6,23.2,,00.0,0671.7,30.8
2021-10-09T01:30:00Z,00000200,01000000,0001.51,0000.97,0000.32,-000.44,0000.17,0000.08,0004.33,0003.98,0003.12,16.7,23.2,,00.0,0671.7,30.8
2021-10-09T01:31:00Z,00000200,01000000,0002.23,0000.69,0000.55,-000.29,0000.29,0000.29,0004.03,0003.64,0002.80,16.8,23.3,,00.0,0671.7,30.8
2021-10-09T01:32:00Z,00000200,01000000,0001.69,0000.67,0000.71,0000.56,0000.65,-000.31,0009.69,0008.71,0006.23,16.8,23.3,,00.0,0671.7,30.9
2021-10-09T01:33:00Z,00000200,01000000,0001.79,0000.89,0000.56,0000.24,0000.25,0000.31,0008.68,0007.68,0005.95,16.9,23.4,,00.0,0671.7,30.9
2021-10-09T01:34:00Z,00000200,01000000,0001.20,0000.79,0000.94,-000.00,0000.16,0000.36,0006.27,0005.23,0004.04,17.0,23.4,,00.0,0671.7,30.9
2021-10-09T01:35:00Z,00000200,01000000,0000.98,0000.97,0000.56,0000.18,0000.27,0000.33,0005.87,0005.55,0003.83,17.1,23.4,,00.0,0671.7,30.9
2021-10-09T01:36:00Z,00000200,01000000,0001.11,0000.59,0000.37,0000.10,0000.14,0000.23,0005.28,0004.90,0003.62,17.1,23.5,,00.0,0671.7,30.9
2021-10-09T01:37:00Z,00000200,01000000,0001.84,0000.55,0000.47,-000.11,-000.17,0000.17,0002.47,0002.78,0001.83,17.2,23.5,,00.0,0671.7,30.9
2021-10-09T01:38:00Z,00000200,01000000,0001.34,0000.96,0000.72,0000.17,0000.02,0000.12,0001.27,0000.51,0000.63,17.2,23.5,,00.0,0671.7,30.9
2021-10-09T01:39:00Z,00000200,01000000,0001.44,0000.41,0000.70,0000.48,0000.06,0000.04,0003.73,0003.49,0002.42,17.1,23.5,,00.0,0671.7,30.9
2021-10-09T01:40:00Z,00000200,01000000,0001.60,0000.79,0000.69,0001.06,0000.20,0000.26,0002.41,0001.73,0001.95,17.0,23.5,,00.0,0671.7,30.8
2021-10-09T01:41:00Z,00000200,01010000,0001.44,0000.70,0000.92,-000.06,0000.08,0000.25,0000.68,0000.95,0000.24,16.9,23.4,,00.0,0671.7,30.8
2021-10-09T01:42:00Z,00000200,01000000,0001.06,0000.60,0000.42,-000.55,0000.21,0000.01,0001.54,0001.08,0001.04,16.8,23.4,,00.0,0671.7,30.8
2021-10-09T01:43:00Z,00000200,01000000,0001.52,0000.76,0000.79,0000.13,0000.12,0000.10,0000.33,0000.44,0000.15,16.7,23.3,,00.0,0671.7,30.8
2021-10-09T01:44:00Z,00000200,01000000,0001.43,0000.71,0000.85,-000.33,-000.02,0000.24,0000.05,0000.22,0000.55,16.8,23.3,,00.0,0671.7,30.8
2021-10-09T01:45:00Z,00000200,01000000,0000.82,0000.77,0000.45,-000.04,0000.03,0000.28,0000.44,0000.54,-000.21,16.8,23.3,,00.0,0671.7,30.8
2021-10-09T01:46:00Z,00000200,01000000,0001.45,0000.79,0000.24,0000.64,0000.18,-000.23,0001.42,0001.04,0001.15,16.9,23.3,,00.0,0671.7,30.8
2021-10-09T01:47:00Z,00000200,01000000,0001.47,0000.81,0000.40,0000.58,0000.37,-000.23,0004.70,0004.03,0003.39,17.0,23.4,,00.0,0671.7,30.9
2021-10-09T01:48:00Z,00000200,01000000,0001.90,0001.01,0000.53,0000.38,0000.37,0000.02,0006.70,0006.31,0004.04,17.0,23.4,,00.0,0671.7,30.9
2021-10-09T01:49:00Z,00000200,01000000,0001.07,0001.08,0000.40,0000.05,0000.22,-000.33,0006.28,0005.86,0004.80,17.1,23.5,,00.0,0671.7,30.9
2021-10-09T01:50:00Z,00000200,01000000,0000.73,0000.50,0000.40,0000.75,0000.18,0000.08,0003.53,0002.81,0002.27,17.2,23.5,,00.0,0671.7,30.9
2021-10-09T01:51:00Z,00000200,01000000,0001.49,0000.82,0000.74,-000.01,0000.13,0000.20,0000.61,0000.78,0000.26,17.2,23.5,,00.0,0671.6,30.9
2021-10-09T01:52:00Z,00000200,01000000,0002.24,0000.80,0000.56,0000.02,0000.42,0000.15,0000.85,0000.46,0000.32,17.2,23.5,,00.0,0671.6,30.9
2021-10-09T01:53:00Z,00000200,01000000,0001.75,0000.92,0000.62,-000.05,0000.10,-000.24,-000.70,-000.56,-000.35,17.1,23.5,,00.0,0671.6,30.9
2021-10-09T01:54:00Z,00000200,01000000,0002.18,0000.80,0000.43,-000.06,0000.25,0000.11,0000.60,0000.28,-000.10,17.0,23.4,,00.0,0671.6,30.9
2021-10-09T01:55:00Z,00000200,01000000,0001.10,0000.66,0000.54,0000.32,0000.14,0000.00,0000.45,0000.81,0000.73,16.9,23.4,,00.0,0671.6,30.9
2021-10-09T01:56:00Z,00000200,01000000,0001.29,0001.07,0000.63,-000.29,0000.16,0000.08,0006.29,0005.35,0003.68,16.8,23.3,,00.0,0671.6,30.8
2021-10-09T01:57:00Z,00000200,41000000,,,,,,,0001.03,0001.11,0001.10,16.8,23.3,,00.0,0671.6,30.8
2021-10-09T01:58:00Z,00000200,61000000,,,,,,,0000.52,0000.43,0000.64,16.3,23.4,,00.0,0670.6,30.8
2021-10-09T01:59:00Z,00000200,21000000,,,,,,,0000.16,0000.04,0000.06,16.3,23.5,,00.0,0670.6,30.8
